Lee's Summit, MO

5:14 AM CST on December 15, 2019 (GMT -0600)
Lee's Summit Municipal

Weather History for KLXT - November, 2019

Change the Weather History Date:

Thursday, November 14, 2019

  Actual Average (KMKC) Record (KMKC)
Temperature  
Mean Temperature 39 °F -  
Max Temperature 46 °F 53 °F 70 °F (2001)
Min Temperature 32 °F 36 °F 18 °F (2014)
Degree Days  
Heating Degree Days 26    
Moisture  
Dew Point 22 °F    
Average Humidity 55    
Maximum Humidity 79    
Minimum Humidity 33    
Precipitation  
Precipitation 0.00 in - - ()
Sea Level Pressure  
Sea Level Pressure 30.32 in    
Wind  
Wind Speed 8 mph ()    
Max Wind Speed 13 mph    
Max Gust Speed 20 mph    
Visibility 9.7 miles    
Events      
Averages and records for this station are not official NWS values.
T = Trace of Precipitation, MM = Missing Value Source: Averaged Metar Reports

Daily Weather History Graph

Daily Weather History Graph

Search for Another Location

Airport or City:

Astronomy

Nov. 14, 2019 Rise Set
Actual Time 6:58 AM CST 5:04 PM CST
Civil Twilight 6:30 AM CST 5:32 PM CST
Nautical Twilight 5:58 AM CST 6:05 PM CST
Astronomical Twilight 5:26 AM CST 6:36 PM CST
Moon 6:51 PM CST (11/14) 8:54 AM CST (11/14)
Length of Visible Light 11h 02m
Length of Day
10h 05m
Waning Gibbous, 95% of the Moon is Illuminated
Nov 14
Waning Gibbous
Nov 19
Last Quarter
Nov 26
New
Dec 4
First Quarter
Dec 11
Full

Hourly Weather History & Observations

Time (CST) Temp. Windchill Dew Point Humidity Pressure Visibility Wind Dir Wind Speed Gust Speed Precip Events Conditions
12:53 AM 37.9 °F 30.0 °F 27.0 °F 65% 30.14 in 10.0 mi NNW 12.7 mph - N/A   Overcast
1:53 AM 36.0 °F 29.0 °F 26.1 °F 67% 30.17 in 10.0 mi NW 9.2 mph - N/A   Mostly Cloudy
2:53 AM 34.0 °F 27.2 °F 26.1 °F 73% 30.19 in 10.0 mi NNW 8.1 mph - N/A   Clear
3:53 AM 35.1 °F 28.6 °F 27.0 °F 72% 30.21 in 10.0 mi NNW 8.1 mph - N/A   Overcast
4:51 AM 35.6 °F 28.0 °F 26.6 °F 70% 30.22 in 10.0 mi NNW 10.4 mph - N/A   Overcast
4:53 AM 36.0 °F 28.5 °F 27.0 °F 70% 30.24 in 10.0 mi NNW 10.4 mph - N/A   Overcast
5:53 AM 36.0 °F 28.5 °F 28.0 °F 73% 30.27 in 10.0 mi NNW 10.4 mph - N/A   Overcast
6:53 AM 34.0 °F 26.6 °F 28.0 °F 79% 30.30 in 10.0 mi NNW 9.2 mph - N/A   Overcast
7:33 AM 34.0 °F 26.6 °F 28.0 °F 79% 30.29 in 10.0 mi NNW 9.2 mph - N/A   Scattered Clouds
7:53 AM 34.0 °F 26.6 °F 28.0 °F 79% 30.33 in 10.0 mi NNW 9.2 mph - N/A   Clear
8:53 AM 37.0 °F 30.4 °F 28.9 °F 73% 30.35 in 10.0 mi North 9.2 mph - N/A   Clear
9:53 AM 39.9 °F 33.9 °F 28.0 °F 63% 30.36 in 10.0 mi NNW 9.2 mph - N/A   Clear
10:53 AM 42.1 °F 35.2 °F 25.0 °F 51% 30.37 in 10.0 mi NW 12.7 mph - N/A   Clear
11:53 AM 43.0 °F 37.7 °F 24.1 °F 47% 30.36 in 10.0 mi NNW 9.2 mph - N/A   Clear
12:53 PM 45.0 °F 39.7 °F 21.9 °F 40% 30.35 in 10.0 mi WNW 10.4 mph 19.6 mph N/A   Clear
1:53 PM 46.0 °F 40.2 °F 19.9 °F 35% 30.34 in 10.0 mi WNW 12.7 mph - N/A   Clear
2:53 PM 46.0 °F 41.0 °F 18.0 °F 33% 30.34 in 2.0 mi WNW 10.4 mph - N/A   Haze
3:06 PM 46.0 °F 40.6 °F 18.0 °F 33% 30.32 in 10.0 mi NW 11.5 mph - N/A   Clear
3:53 PM 45.0 °F 39.3 °F 17.1 °F 33% 30.35 in 10.0 mi NW 11.5 mph - N/A   Clear
4:53 PM 41.0 °F 35.2 °F 16.0 °F 36% 30.36 in 10.0 mi NW 9.2 mph - N/A   Clear
5:53 PM 39.9 °F 35.1 °F 16.0 °F 38% 30.38 in 10.0 mi NW 6.9 mph - N/A   Clear
6:53 PM 37.9 °F 33.5 °F 15.1 °F 39% 30.40 in 10.0 mi NNW 5.8 mph - N/A   Clear
7:53 PM 37.0 °F 33.3 °F 14.0 °F 39% 30.40 in 10.0 mi NNW 4.6 mph - N/A   Clear
8:53 PM 36.0 °F - 14.0 °F 41% 30.40 in 10.0 mi Calm Calm - N/A   Clear
9:53 PM 32.0 °F 28.7 °F 15.1 °F 50% 30.42 in 10.0 mi SW 3.5 mph - N/A   Clear
10:53 PM 33.1 °F - 16.0 °F 50% 30.41 in 10.0 mi Calm Calm - N/A   Clear
11:53 PM 32.0 °F - 16.0 °F 52% 30.41 in 10.0 mi Calm Calm - N/A   Clear